TimeEST,TemperatureF,Dew PointF,Humidity,Sea Level PressureIn,VisibilityMPH,Wind Direction,Wind SpeedMPH,Gust SpeedMPH,PrecipitationIn,Events,Conditions,WindDirDegrees,DateUTC
12:15 AM,48.6,48.6,100,29.99,3.0,Calm,Calm,-,N/A,,Light Drizzle,0,2013-01-17 05:15:00
12:35 AM,48.4,48.4,100,29.99,3.0,Calm,Calm,-,N/A,Rain,Rain,0,2013-01-17 05:35:00
12:55 AM,48.4,48.4,100,29.98,2.5,Calm,Calm,-,0.01,Rain,Light Rain,0,2013-01-17 05:55:00
1:15 AM,48.4,48.4,100,29.98,3.0,Calm,Calm,-,N/A,,Drizzle,0,2013-01-17 06:15:00
1:35 AM,48.6,48.6,100,29.97,2.5,Calm,Calm,-,0.01,Rain,Heavy Rain,0,2013-01-17 06:35:00
1:55 AM,48.6,48.6,100,29.96,2.0,Calm,Calm,-,0.01,Rain,Rain,0,2013-01-17 06:55:00
2:15 AM,48.6,48.6,100,29.96,2.5,Calm,Calm,-,N/A,,Drizzle,0,2013-01-17 07:15:00
2:35 AM,48.7,48.7,100,29.96,4.0,Calm,Calm,-,N/A,,Light Drizzle,0,2013-01-17 07:35:00
2:55 AM,48.6,48.6,100,29.96,2.0,Calm,Calm,-,N/A,,Heavy Drizzle,0,2013-01-17 07:55:00
3:15 AM,48.6,48.6,100,29.96,2.5,Calm,Calm,-,0.02,Rain,Heavy Rain,0,2013-01-17 08:15:00
3:35 AM,48.7,48.7,100,29.96,3.0,Calm,Calm,-,0.02,,Heavy Drizzle,0,2013-01-17 08:35:00
3:55 AM,48.7,48.7,100,29.96,2.5,Calm,Calm,-,0.02,Rain,Heavy Rain,0,2013-01-17 08:55:00
4:35 AM,48.4,48.4,100,29.96,4.0,Calm,Calm,-,0.02,,Drizzle,0,2013-01-17 09:35:00
4:55 AM,48.4,48.4,100,29.96,2.5,Calm,Calm,-,0.03,,Heavy Drizzle,0,2013-01-17 09:55:00
5:15 AM,48.4,48.4,100,29.96,3.0,Calm,Calm,-,0.02,Rain,Rain,0,2013-01-17 10:15:00
5:35 AM,48.6,48.6,100,29.96,5.0,Calm,Calm,-,0.02,Rain,Rain,0,2013-01-17 10:35:00
5:55 AM,48.6,48.6,100,29.96,5.0,NE,5.8,-,0.03,Rain,Heavy Rain,50,2013-01-17 10:55:00
6:15 AM,48.6,48.6,100,29.96,5.0,ENE,4.6,-,0.01,Rain,Light Rain,60,2013-01-17 11:15:00
6:35 AM,48.7,48.7,100,29.96,7.0,NNE,3.5,-,0.01,,Drizzle,30,2013-01-17 11:35:00
6:55 AM,48.7,48.7,100,29.97,5.0,Calm,Calm,-,0.02,Rain,Rain,0,2013-01-17 11:55:00
7:15 AM,48.6,48.6,100,29.98,5.0,NNE,4.6,-,0.01,Rain,Rain,30,2013-01-17 12:15:00
7:35 AM,48.4,48.4,100,29.99,7.0,Calm,Calm,-,0.02,,Drizzle,0,2013-01-17 12:35:00
7:55 AM,48.2,48.2,100,29.99,5.0,NE,6.9,-,0.02,Rain,Heavy Rain,40,2013-01-17 12:55:00
8:15 AM,47.8,47.8,100,30.00,5.0,NE,4.6,-,0.01,Rain,Rain,40,2013-01-17 13:15:00
8:35 AM,47.5,47.5,100,30.01,4.0,NE,4.6,-,0.02,Rain,Rain,40,2013-01-17 13:35:00
8:55 AM,47.3,47.3,100,30.02,2.5,NE,6.9,-,0.04,Rain,Rain,40,2013-01-17 13:55:00
9:15 AM,46.9,46.9,100,30.02,3.0,NNE,4.6,-,0.02,Rain,Rain,30,2013-01-17 14:15:00
9:35 AM,46.9,46.9,100,30.02,4.0,NE,4.6,-,0.05,Rain,Light Rain,40,2013-01-17 14:35:00
9:55 AM,47.3,47.3,100,30.01,5.0,ENE,9.2,-,0.06,Rain,Light Rain,60,2013-01-17 14:55:00
10:15 AM,47.3,47.3,100,30.00,5.0,ENE,12.7,18.4,N/A,,Drizzle,60,2013-01-17 15:15:00
10:35 AM,46.4,46.4,100,30.00,4.0,NE,6.9,16.1,N/A,,Drizzle,50,2013-01-17 15:35:00
10:55 AM,45.5,45.5,100,29.99,4.0,NNE,6.9,17.3,0.01,,Drizzle,30,2013-01-17 15:55:00
11:15 AM,45.0,45.0,100,29.99,4.0,North,5.8,16.1,0.02,Rain,Heavy Rain,10,2013-01-17 16:15:00
11:35 AM,44.6,44.6,100,30.00,2.5,North,5.8,-,0.06,Rain,Rain,10,2013-01-17 16:35:00
11:55 AM,44.1,44.1,100,29.99,4.0,North,5.8,-,0.09,Rain,Rain,10,2013-01-17 16:55:00
12:15 PM,43.5,43.5,100,29.97,5.0,NNE,10.4,16.1,0.01,Rain,Heavy Rain,20,2013-01-17 17:15:00
12:35 PM,42.1,42.1,100,29.94,4.0,NNE,10.4,19.6,0.02,,Heavy Drizzle,20,2013-01-17 17:35:00
12:55 PM,41.0,41.0,100,29.93,7.0,NNE,8.1,20.7,0.03,Rain,Rain,30,2013-01-17 17:55:00
1:15 PM,40.8,40.8,100,29.91,5.0,NNE,8.1,-,N/A,,Heavy Drizzle,30,2013-01-17 18:15:00
1:35 PM,41.0,41.0,100,29.87,5.0,NNE,11.5,21.9,N/A,,Light Drizzle,30,2013-01-17 18:35:00
1:55 PM,41.0,41.0,100,29.88,4.0,NNE,8.1,19.6,0.01,,Drizzle,20,2013-01-17 18:55:00
2:15 PM,41.2,41.2,100,29.89,7.0,NNE,8.1,-,N/A,Rain,Light Rain,30,2013-01-17 19:15:00
2:35 PM,41.0,41.0,100,29.89,5.0,North,10.4,21.9,N/A,,Light Drizzle,10,2013-01-17 19:35:00
2:55 PM,40.6,40.6,100,29.89,4.0,NNE,4.6,-,N/A,,Drizzle,20,2013-01-17 19:55:00
3:15 PM,40.3,40.3,100,29.88,4.0,North,5.8,-,N/A,,Heavy Drizzle,10,2013-01-17 20:15:00
3:35 PM,40.3,40.3,100,29.89,5.0,NNE,8.1,-,0.01,,Drizzle,20,2013-01-17 20:35:00
3:55 PM,40.3,40.3,100,29.89,2.0,NNE,10.4,17.3,0.04,Rain,Rain,20,2013-01-17 20:55:00
4:15 PM,40.5,40.5,100,29.88,4.0,NNE,8.1,24.2,0.02,Rain,Rain,20,2013-01-17 21:15:00
4:35 PM,40.1,40.1,100,29.87,5.0,NNE,12.7,20.7,0.05,Rain,Rain,20,2013-01-17 21:35:00
4:55 PM,40.1,40.1,100,29.88,3.0,NNE,11.5,19.6,0.09,Rain,Rain,20,2013-01-17 21:55:00
5:55 PM,39.2,39.2,100,29.89,5.0,NNE,11.5,24.2,0.05,Rain,Rain,20,2013-01-17 22:55:00
6:35 PM,38.5,38.5,100,29.99,2.5,WNW,10.4,17.3,0.10,Rain,Heavy Rain,300,2013-01-17 23:35:00
8:55 PM,32.4,32.4,100,30.04,2.0,North,5.8,-,0.09,Snow,Light Snow,360,2013-01-18 01:55:00
9:15 PM,32.5,32.5,100,30.03,5.0,NNE,9.2,16.1,0.01,Snow,Light Snow,20,2013-01-18 02:15:00
9:55 PM,32.9,32.9,100,30.10,4.0,Calm,Calm,-,0.06,Rain,Rain,0,2013-01-18 02:55:00
10:15 PM,32.5,32.5,100,30.13,2.5,West,3.5,-,0.01,,Overcast,280,2013-01-18 03:15:00
10:35 PM,32.2,32.2,100,30.15,4.0,Calm,Calm,-,0.01,Rain,Light Rain,0,2013-01-18 03:35:00
10:55 PM,32.2,32.2,100,30.16,4.0,Calm,Calm,-,0.02,Rain,Light Rain,0,2013-01-18 03:55:00